| time (UTC) | temp F | wind direction | speed knots | gust knots | rain 1hr in | rain 24hr in | rain mn in | humidity % | barometer mb |
| 20260506222040 | 83 | 327 | 4.3 | 12.2 | 0.00 | 0.00 | 0.00 | 69 | 1006.6 |
| 20260506221555 | 84 | 41 | 5.2 | 12.2 | 0.00 | 0.00 | 0.00 | 68 | 1006.6 |
| 20260506221041 | 86 | 91 | 3.5 | 8.7 | 0.00 | 0.00 | 0.00 | 68 | 1006.6 |
| 20260506220543 | 86 | 272 | 3.5 | 8.7 | 0.00 | 0.00 | 0.00 | 67 | 1006.4 |
| 20260506220053 | 87 | 103 | 3.5 | 7.0 | 0.00 | 0.00 | 0.00 | 66 | 1006.4 |
| 20260506215543 | 87 | 0 | 1.7 | 7.0 | 0.00 | 0.00 | 0.00 | 66 | 1006.4 |
| 20260506215039 | 86 | 128 | 2.6 | 7.8 | 0.00 | 0.00 | 0.00 | 66 | 1006.3 |
| 20260506214543 | 87 | 212 | 2.6 | 7.8 | 0.00 | 0.00 | 0.00 | 65 | 1006.4 |
| 20260506214041 | 87 | 146 | 0.9 | 5.2 | 0.00 | 0.00 | 0.00 | 66 | 1006.4 |
| 20260506213540 | 88 | 97 | 0.9 | 5.2 | 0.00 | 0.00 | 0.00 | 65 | 1006.5 |
| 20260506213049 | 87 | 0 | 0.0 | 6.1 | 0.00 | 0.00 | 0.00 | 65 | 1006.5 |
| 20260506212540 | 87 | 83 | 1.7 | 7.0 | 0.00 | 0.00 | 0.00 | 66 | 1006.6 |
| 20260506212043 | 87 | 347 | 0.9 | 8.7 | 0.00 | 0.00 | 0.00 | 67 | 1006.6 |
| 20260506211551 | 87 | 174 | 1.7 | 8.7 | 0.00 | 0.00 | 0.00 | 66 | 1006.6 |
| 20260506211042 | 88 | 106 | 1.7 | 8.7 | 0.00 | 0.00 | 0.00 | 65 | 1006.7 |
| 20260506210540 | 88 | 340 | 0.9 | 4.3 | 0.00 | 0.00 | 0.00 | 65 | 1006.7 |
| 20260506210053 | 88 | 100 | 0.0 | 4.3 | 0.00 | 0.00 | 0.00 | 65 | 1006.7 |
| 20260506205544 | 87 | 0 | 1.7 | 4.3 | 0.00 | 0.00 | 0.00 | 65 | 1006.8 |
| 20260506205040 | 87 | 86 | 0.0 | 5.2 | 0.00 | 0.00 | 0.00 | 66 | 1006.8 |
| 20260506204551 | 88 | 29 | 2.6 | 5.2 | 0.00 | 0.00 | 0.00 | 65 | 1006.9 |
| 20260506204039 | 88 | 61 | 0.0 | 10.4 | 0.00 | 0.00 | 0.00 | 66 | 1006.8 |
| 20260506203540 | 88 | 98 | 2.6 | 10.4 | 0.00 | 0.00 | 0.00 | 64 | 1006.8 |
| 20260506203048 | 89 | 139 | 3.5 | 10.4 | 0.00 | 0.00 | 0.00 | 63 | 1006.8 |
| 20260506202540 | 90 | 28 | 0.9 | 2.6 | 0.00 | 0.00 | 0.00 | 62 | 1006.9 |
| 20260506202040 | 90 | 278 | 0.0 | 6.1 | 0.00 | 0.00 | 0.00 | 63 | 1007.0 |
| 20260506201548 | 89 | 12 | 0.9 | 6.1 | 0.00 | 0.00 | 0.00 | 63 | 1007.1 |
| 20260506201039 | 90 | 97 | 0.9 | 4.3 | 0.00 | 0.00 | 0.00 | 62 | 1007.1 |
| 20260506200541 | 89 | 279 | 0.0 | 2.6 | 0.00 | 0.00 | 0.00 | 64 | 1007.2 |
| 20260506200048 | 88 | 0 | 0.9 | 2.6 | 0.00 | 0.00 | 0.00 | 64 | 1007.4 |
| 20260506195540 | 88 | 0 | 0.9 | 3.5 | 0.00 | 0.00 | 0.00 | 65 | 1007.4 |
| 20260506195040 | 88 | 31 | 1.7 | 4.3 | 0.00 | 0.00 | 0.00 | 66 | 1007.6 |
| 20260506194548 | 88 | 172 | 0.9 | 4.3 | 0.00 | 0.00 | 0.00 | 67 | 1007.6 |
| 20260506194040 | 89 | 340 | 0.0 | 4.3 | 0.00 | 0.00 | 0.00 | 64 | 1007.7 |
| 20260506193539 | 89 | 33 | 0.9 | 6.1 | 0.00 | 0.00 | 0.00 | 64 | 1007.6 |
| 20260506193044 | 88 | 130 | 0.0 | 8.7 | 0.00 | 0.00 | 0.00 | 66 | 1007.7 |
| 20260506192539 | 87 | 129 | 2.6 | 8.7 | 0.00 | 0.00 | 0.00 | 66 | 1007.8 |
| 20260506192039 | 86 | 127 | 3.5 | 8.7 | 0.00 | 0.00 | 0.00 | 67 | 1007.7 |
| 20260506191546 | 86 | 47 | 2.6 | 7.8 | 0.00 | 0.00 | 0.00 | 68 | 1007.7 |
| 20260506191040 | 85 | 344 | 2.6 | 7.8 | 0.00 | 0.00 | 0.00 | 71 | 1007.8 |
| 20260506190539 | 85 | 131 | 2.6 | 7.0 | 0.00 | 0.00 | 0.00 | 70 | 1007.8 |
| 20260506190055 | 84 | 134 | 0.0 | 4.3 | 0.00 | 0.00 | 0.00 | 71 | 1007.9 |
| 20260506185541 | 84 | 0 | 0.9 | 6.1 | 0.00 | 0.00 | 0.00 | 73 | 1007.9 |
| 20260506185039 | 83 | 352 | 1.7 | 6.1 | 0.00 | 0.00 | 0.00 | 75 | 1008.0 |
| 20260506184549 | 83 | 49 | 0.9 | 5.2 | 0.00 | 0.00 | 0.00 | 76 | 1008.2 |
| 20260506184040 | 83 | 41 | 0.9 | 3.5 | 0.00 | 0.00 | 0.00 | 76 | 1008.1 |
| 20260506183539 | 83 | 68 | 0.9 | 3.5 | 0.00 | 0.00 | 0.00 | 76 | 1008.3 |
| 20260506183048 | 82 | 0 | 0.0 | 4.3 | 0.00 | 0.00 | 0.00 | 76 | 1008.3 |
| 20260506182540 | 82 | 4 | 0.9 | 4.3 | 0.00 | 0.00 | 0.00 | 77 | 1008.5 |
| 20260506182040 | 82 | 44 | 0.9 | 4.3 | 0.00 | 0.00 | 0.00 | 77 | 1008.5 |
| 20260506181543 | 83 | 70 | 0.0 | 3.5 | 0.00 | 0.00 | 0.00 | 76 | 1008.5 |
| 20260506181043 | 82 | 0 | 0.0 | 5.2 | 0.00 | 0.00 | 0.00 | 77 | 1008.5 |
| 20260506180540 | 82 | 20 | 0.9 | 6.1 | 0.00 | 0.00 | 0.00 | 78 | 1008.6 |
| 20260506180057 | 82 | 0 | 1.7 | 6.1 | 0.00 | 0.00 | 0.00 | 78 | 1008.6 |
| 20260506175540 | 82 | 78 | 0.9 | 4.3 | 0.00 | 0.00 | 0.00 | 78 | 1008.7 |
| 20260506175039 | 82 | 6 | 0.0 | 3.5 | 0.00 | 0.00 | 0.00 | 77 | 1008.7 |
| 20260506174547 | 81 | 0 | 0.9 | 3.5 | 0.00 | 0.00 | 0.00 | 78 | 1008.8 |
| 20260506174040 | 81 | 67 | 0.0 | 3.5 | 0.00 | 0.00 | 0.00 | 81 | 1008.7 |
| 20260506173540 | 80 | 37 | 0.9 | 4.3 | 0.00 | 0.00 | 0.00 | 81 | 1008.8 |
| 20260506173103 | 80 | 26 | 0.9 | 6.1 | 0.00 | 0.00 | 0.00 | 82 | 1008.7 |
| 20260506172540 | 80 | 73 | 1.7 | 6.1 | 0.00 | 0.00 | 0.00 | 81 | 1008.7 |
| 20260506172040 | 80 | 35 | 1.7 | 5.2 | 0.00 | 0.00 | 0.00 | 83 | 1008.7 |
| 20260506171551 | 80 | 24 | 2.6 | 5.2 | 0.00 | 0.00 | 0.00 | 82 | 1008.7 |
| 20260506171040 | 80 | 33 | 0.0 | 3.5 | 0.00 | 0.00 | 0.00 | 82 | 1008.7 |
| 20260506170540 | 80 | 0 | 1.7 | 4.3 | 0.00 | 0.00 | 0.00 | 83 | 1008.7 |
| 20260506170059 | 79 | 62 | 1.7 | 4.3 | 0.00 | 0.00 | 0.00 | 84 | 1008.7 |
| 20260506165543 | 79 | 356 | 0.0 | 5.2 | 0.00 | 0.00 | 0.00 | 84 | 1008.7 |
| 20260506165040 | 79 | 1 | 2.6 | 5.2 | 0.00 | 0.00 | 0.00 | 84 | 1008.8 |
| 20260506164605 | 79 | 8 | 0.9 | 6.1 | 0.00 | 0.00 | 0.00 | 84 | 1008.8 |
| 20260506164039 | 80 | 46 | 1.7 | 6.1 | 0.00 | 0.00 | 0.00 | 83 | 1008.8 |
| 20260506163539 | 80 | 58 | 2.6 | 5.2 | 0.00 | 0.00 | 0.00 | 84 | 1008.6 |
| 20260506163058 | 80 | 86 | 2.6 | 5.2 | 0.00 | 0.00 | 0.00 | 83 | 1008.7 |
| 20260506162541 | 79 | 14 | 1.7 | 6.1 | 0.00 | 0.00 | 0.00 | 84 | 1008.6 |
| 20260506162039 | 79 | 96 | 3.5 | 6.1 | 0.00 | 0.00 | 0.00 | 86 | 1008.6 |
| 20260506161552 | 77 | 0 | 2.6 | 6.1 | 0.00 | 0.00 | 0.00 | 88 | 1008.6 |
| 20260506161040 | 78 | 17 | 1.7 | 4.3 | 0.00 | 0.00 | 0.00 | 88 | 1008.5 |
| 20260506160540 | 77 | 25 | 2.6 | 4.3 | 0.00 | 0.00 | 0.00 | 89 | 1008.5 |
| 20260506160105 | 77 | 59 | 2.6 | 4.3 | 0.00 | 0.00 | 0.00 | 90 | 1008.5 |
| 20260506155540 | 76 | 82 | 1.7 | 4.3 | 0.00 | 0.00 | 0.00 | 90 | 1008.5 |
| 20260506155040 | 76 | 44 | 1.7 | 6.1 | 0.00 | 0.00 | 0.00 | 91 | 1008.4 |
| 20260506154553 | 76 | 13 | 2.6 | 6.1 | 0.00 | 0.00 | 0.00 | 90 | 1008.3 |
| 20260506154040 | 76 | 90 | 0.9 | 4.3 | 0.00 | 0.00 | 0.00 | 90 | 1008.3 |
| 20260506153540 | 76 | 10 | 0.9 | 4.3 | 0.00 | 0.00 | 0.00 | 89 | 1008.2 |
| 20260506153047 | 76 | 89 | 0.9 | 3.5 | 0.00 | 0.00 | 0.00 | 89 | 1008.1 |
| 20260506152536 | 76 | 40 | 0.9 | 5.2 | 0.00 | 0.00 | 0.00 | 89 | 1008.1 |
| 20260506152040 | 76 | 62 | 0.9 | 5.2 | 0.00 | 0.00 | 0.00 | 89 | 1008.0 |
| 20260506151550 | 76 | 90 | 1.7 | 6.1 | 0.00 | 0.00 | 0.00 | 89 | 1007.9 |
| 20260506151039 | 76 | 0 | 0.9 | 6.1 | 0.00 | 0.00 | 0.00 | 89 | 1007.9 |
| 20260506150539 | 76 | 112 | 2.6 | 6.1 | 0.00 | 0.00 | 0.00 | 89 | 1007.9 |
| 20260506150050 | 76 | 111 | 1.7 | 6.1 | 0.00 | 0.00 | 0.00 | 89 | 1007.9 |
| 20260506145544 | 76 | 86 | 1.7 | 6.1 | 0.00 | 0.00 | 0.00 | 89 | 1007.8 |
| 20260506145041 | 76 | 70 | 0.9 | 5.2 | 0.00 | 0.00 | 0.00 | 90 | 1007.9 |
| 20260506144552 | 76 | 83 | 1.7 | 5.2 | 0.00 | 0.00 | 0.00 | 89 | 1007.7 |
| 20260506144040 | 76 | 0 | 0.9 | 5.2 | 0.00 | 0.00 | 0.00 | 89 | 1007.6 |
| 20260506143540 | 76 | 70 | 1.7 | 7.0 | 0.00 | 0.00 | 0.00 | 90 | 1007.6 |
| 20260506143050 | 76 | 117 | 2.6 | 8.7 | 0.00 | 0.00 | 0.00 | 90 | 1007.4 |
| 20260506142539 | 76 | 104 | 3.5 | 8.7 | 0.00 | 0.00 | 0.00 | 90 | 1007.4 |
| 20260506142039 | 76 | 98 | 1.7 | 7.0 | 0.00 | 0.00 | 0.00 | 90 | 1007.3 |
| 20260506141607 | 76 | 0 | 2.6 | 7.0 | 0.00 | 0.00 | 0.00 | 90 | 1007.4 |
| 20260506141042 | 76 | 0 | 1.7 | 7.0 | 0.00 | 0.00 | 0.00 | 90 | 1007.2 |
| 20260506140539 | 76 | 125 | 3.5 | 7.0 | 0.00 | 0.00 | 0.00 | 91 | 1007.1 |
| 20260506140049 | 76 | 140 | 0.9 | 7.8 | 0.00 | 0.00 | 0.00 | 90 | 1007.0 |
| 20260506135540 | 75 | 151 | 3.5 | 7.8 | 0.00 | 0.00 | 0.00 | 91 | 1007.1 |
| 20260506135040 | 75 | 239 | 1.7 | 7.8 | 0.00 | 0.00 | 0.00 | 91 | 1006.7 |
| 20260506134546 | 75 | 82 | 3.5 | 9.6 | 0.00 | 0.00 | 0.00 | 91 | 1006.7 |
| 20260506134039 | 75 | 113 | 3.5 | 9.6 | 0.00 | 0.00 | 0.00 | 91 | 1006.7 |
| 20260506133539 | 75 | 231 | 0.9 | 8.7 | 0.00 | 0.00 | 0.00 | 91 | 1006.7 |
| 20260506133057 | 75 | 134 | 3.5 | 8.7 | 0.00 | 0.00 | 0.00 | 92 | 1006.6 |
| 20260506132540 | 75 | 226 | 3.5 | 9.6 | 0.00 | 0.00 | 0.00 | 92 | 1006.6 |
| 20260506132041 | 75 | 116 | 4.3 | 9.6 | 0.00 | 0.00 | 0.00 | 92 | 1006.6 |
| 20260506131548 | 75 | 68 | 4.3 | 9.6 | 0.00 | 0.00 | 0.00 | 92 | 1006.4 |
| 20260506131041 | 75 | 79 | 3.5 | 9.6 | 0.00 | 0.00 | 0.00 | 92 | 1006.4 |
| 20260506130540 | 75 | 39 | 3.5 | 9.6 | 0.00 | 0.00 | 0.00 | 92 | 1006.3 |
| 20260506130048 | 75 | 128 | 1.7 | 6.1 | 0.00 | 0.00 | 0.00 | 92 | 1006.2 |
| 20260506125539 | 74 | 98 | 0.9 | 7.0 | 0.00 | 0.00 | 0.00 | 92 | 1006.4 |
| 20260506125039 | 74 | 222 | 3.5 | 7.0 | 0.00 | 0.00 | 0.00 | 92 | 1006.2 |
| 20260506124551 | 74 | 84 | 2.6 | 7.0 | 0.00 | 0.00 | 0.00 | 92 | 1006.3 |
| 20260506124039 | 74 | 0 | 1.7 | 7.0 | 0.00 | 0.00 | 0.00 | 93 | 1006.3 |
| 20260506123540 | 74 | 130 | 2.6 | 7.0 | 0.00 | 0.00 | 0.00 | 93 | 1006.4 |
| 20260506123047 | 74 | 276 | 3.5 | 9.6 | 0.00 | 0.00 | 0.00 | 93 | 1006.2 |
| 20260506122540 | 74 | 16 | 3.5 | 9.6 | 0.00 | 0.00 | 0.00 | 93 | 1006.3 |
| 20260506122040 | 74 | 90 | 3.5 | 7.0 | 0.00 | 0.00 | 0.00 | 93 | 1006.4 |
| 20260506121555 | 74 | 0 | 1.7 | 6.1 | 0.00 | 0.00 | 0.00 | 93 | 1006.4 |
| 20260506121040 | 74 | 117 | 0.9 | 7.0 | 0.00 | 0.00 | 0.00 | 93 | 1006.5 |
| 20260506120540 | 74 | 89 | 1.7 | 7.0 | 0.00 | 0.00 | 0.00 | 93 | 1006.3 |
| 20260506120115 | 74 | 101 | 2.6 | 6.1 | 0.00 | 0.00 | 0.00 | 93 | 1006.1 |
| 20260506115539 | 74 | 89 | 2.6 | 6.1 | 0.00 | 0.00 | 0.00 | 93 | 1006.2 |
| 20260506115039 | 74 | 118 | 2.6 | 5.2 | 0.00 | 0.00 | 0.00 | 93 | 1006.3 |
| 20260506114547 | 74 | 128 | 1.7 | 3.5 | 0.00 | 0.00 | 0.00 | 93 | 1006.2 |
| 20260506114039 | 74 | 140 | 0.9 | 4.3 | 0.00 | 0.00 | 0.00 | 93 | 1006.3 |
| 20260506113539 | 74 | 0 | 0.9 | 4.3 | 0.00 | 0.00 | 0.00 | 94 | 1006.3 |
| 20260506113049 | 74 | 0 | 0.0 | 4.3 | 0.00 | 0.00 | 0.00 | 94 | 1006.1 |
| 20260506112541 | 74 | 0 | 0.0 | 1.7 | 0.00 | 0.00 | 0.00 | 94 | 1006.1 |
| 20260506112039 | 74 | 96 | 0.0 | 1.7 | 0.00 | 0.00 | 0.00 | 93 | 1006.1 |
| 20260506111549 | 74 | 0 | 0.0 | 0.9 | 0.00 | 0.00 | 0.00 | 94 | 1006.2 |
| 20260506111041 | 74 | 0 | 0.0 | 1.7 | 0.00 | 0.00 | 0.00 | 94 | 1006.1 |
| 20260506110540 | 74 | 0 | 0.0 | 1.7 | 0.00 | 0.00 | 0.00 | 94 | 1006.1 |
| 20260506110051 | 74 | 0 | 0.0 | 1.7 | 0.00 | 0.00 | 0.00 | 94 | 1006.1 |
| 20260506105542 | 74 | 0 | 0.0 | 2.6 | 0.00 | 0.00 | 0.00 | 93 | 1006.1 |
| 20260506105040 | 74 | 127 | 0.0 | 2.6 | 0.00 | 0.00 | 0.00 | 93 | 1006.0 |
| 20260506104548 | 74 | 96 | 0.9 | 3.5 | 0.00 | 0.00 | 0.00 | 93 | 1005.8 |
| 20260506104040 | 74 | 112 | 0.9 | 3.5 | 0.00 | 0.00 | 0.00 | 93 | 1005.9 |
| 20260506103539 | 74 | 108 | 2.6 | 3.5 | 0.00 | 0.00 | 0.00 | 94 | 1005.8 |
| 20260506103053 | 74 | 129 | 0.0 | 2.6 | 0.00 | 0.00 | 0.00 | 91 | 1005.8 |
| 20260506102540 | 74 | 99 | 0.0 | 4.3 | 0.00 | 0.00 | 0.00 | 93 | 1005.8 |
| 20260506102041 | 74 | 0 | 0.9 | 5.2 | 0.00 | 0.00 | 0.00 | 92 | 1005.8 |
| 20260506101550 | 74 | 150 | 1.7 | 5.2 | 0.00 | 0.00 | 0.00 | 93 | 1005.9 |
| 20260506101040 | 74 | 117 | 2.6 | 6.1 | 0.00 | 0.00 | 0.00 | 92 | 1005.8 |
| 20260506100540 | 74 | 115 | 3.5 | 6.1 | 0.00 | 0.00 | 0.00 | 92 | 1005.8 |
| 20260506100048 | 75 | 131 | 3.5 | 6.1 | 0.00 | 0.00 | 0.00 | 92 | 1005.8 |
| 20260506095540 | 75 | 91 | 2.6 | 6.1 | 0.00 | 0.00 | 0.00 | 92 | 1006.0 |
| 20260506095040 | 75 | 148 | 2.6 | 6.1 | 0.00 | 0.00 | 0.00 | 92 | 1005.9 |
| 20260506094549 | 75 | 129 | 2.6 | 6.1 | 0.00 | 0.00 | 0.00 | 92 | 1005.9 |
| 20260506094040 | 75 | 101 | 2.6 | 6.1 | 0.00 | 0.00 | 0.00 | 92 | 1005.9 |
| 20260506093542 | 75 | 122 | 3.5 | 7.0 | 0.00 | 0.00 | 0.00 | 92 | 1006.0 |
| 20260506093052 | 75 | 114 | 2.6 | 7.8 | 0.00 | 0.00 | 0.00 | 92 | 1006.0 |
| 20260506092540 | 75 | 132 | 3.5 | 7.8 | 0.00 | 0.00 | 0.00 | 92 | 1006.0 |
| 20260506092040 | 75 | 155 | 3.5 | 7.0 | 0.00 | 0.00 | 0.00 | 92 | 1006.0 |
| 20260506091547 | 75 | 79 | 2.6 | 7.0 | 0.00 | 0.00 | 0.00 | 91 | 1005.8 |
| 20260506091040 | 75 | 155 | 3.5 | 7.0 | 0.00 | 0.00 | 0.00 | 92 | 1005.9 |
| 20260506090539 | 75 | 100 | 4.3 | 7.0 | 0.00 | 0.00 | 0.00 | 92 | 1005.8 |
| 20260506090046 | 75 | 63 | 2.6 | 7.0 | 0.00 | 0.00 | 0.00 | 91 | 1005.9 |
| 20260506085541 | 75 | 155 | 2.6 | 11.3 | 0.00 | 0.00 | 0.00 | 92 | 1006.0 |
| 20260506085040 | 75 | 255 | 4.3 | 11.3 | 0.00 | 0.00 | 0.00 | 92 | 1006.0 |
| 20260506084549 | 75 | 134 | 3.5 | 7.8 | 0.00 | 0.00 | 0.00 | 91 | 1006.1 |
| 20260506084040 | 75 | 118 | 3.5 | 8.7 | 0.00 | 0.00 | 0.00 | 91 | 1006.1 |
| 20260506083540 | 75 | 116 | 3.5 | 8.7 | 0.00 | 0.00 | 0.00 | 91 | 1006.1 |
| 20260506083048 | 75 | 99 | 5.2 | 9.6 | 0.00 | 0.00 | 0.00 | 91 | 1006.1 |
| 20260506082542 | 75 | 134 | 4.3 | 9.6 | 0.00 | 0.00 | 0.00 | 90 | 1006.1 |
| 20260506082040 | 75 | 131 | 3.5 | 7.8 | 0.00 | 0.00 | 0.00 | 91 | 1006.3 |
| 20260506081550 | 75 | 122 | 3.5 | 13.0 | 0.00 | 0.00 | 0.00 | 90 | 1006.3 |
| 20260506081040 | 75 | 194 | 6.1 | 13.0 | 0.00 | 0.00 | 0.00 | 90 | 1006.3 |
| 20260506080545 | 75 | 103 | 3.5 | 8.7 | 0.00 | 0.00 | 0.00 | 90 | 1006.1 |
| 20260506073055 | 76 | 122 | 3.5 | 9.6 | 0.00 | 0.00 | 0.00 | 90 | 1006.3 |
| 20260506072539 | 76 | 120 | 5.2 | 10.4 | 0.00 | 0.00 | 0.00 | 90 | 1006.3 |
| 20260506072040 | 76 | 149 | 5.2 | 10.4 | 0.00 | 0.00 | 0.00 | 90 | 1006.3 |
| 20260506071554 | 76 | 113 | 3.5 | 11.3 | 0.00 | 0.00 | 0.00 | 89 | 1006.4 |
| 20260506071319 | 76 | 39 | 6.1 | 11.3 | 0.00 | 0.00 | 0.00 | 90 | 1006.5 |
| 20260506070540 | 76 | 143 | 5.2 | 11.3 | 0.00 | 0.00 | 0.00 | 90 | 1006.4 |
| 20260506070115 | 76 | 101 | 5.2 | 12.2 | 0.00 | 0.00 | 0.00 | 90 | 1006.4 |
| 20260506062042 | 76 | 90 | 9.6 | 15.6 | 0.00 | 0.00 | 0.00 | 89 | 1006.4 |
| 20260506061546 | 76 | 32 | 8.7 | 15.6 | 0.00 | 0.00 | 0.00 | 90 | 1006.3 |
| 20260506061044 | 76 | 99 | 6.1 | 14.8 | 0.00 | 0.00 | 0.00 | 90 | 1006.2 |
| 20260506060539 | 76 | 248 | 6.1 | 14.8 | 0.00 | 0.00 | 0.00 | 90 | 1006.5 |
| 20260506051040 | 76 | 88 | 5.2 | 13.0 | 0.00 | 0.00 | 0.00 | 89 | 1006.3 |
| 20260506050540 | 76 | 52 | 6.1 | 13.0 | 0.00 | 0.00 | 0.00 | 89 | 1006.3 |
| 20260506045039 | 76 | 147 | 7.0 | 13.0 | 0.00 | 0.00 | 0.00 | 89 | 1006.2 |
| 20260506044555 | 77 | 76 | 3.5 | 12.2 | 0.00 | 0.00 | 0.00 | 88 | 1006.2 |
| 20260506044039 | 77 | 315 | 6.1 | 12.2 | 0.00 | 0.00 | 0.00 | 88 | 1006.2 |
| 20260506043539 | 77 | 121 | 5.2 | 12.2 | 0.00 | 0.00 | 0.00 | 88 | 1006.2 |
| 20260506043048 | 77 | 131 | 7.0 | 18.2 | 0.00 | 0.00 | 0.00 | 87 | 1006.2 |
| 20260506042540 | 77 | 109 | 8.7 | 18.2 | 0.00 | 0.00 | 0.00 | 87 | 1006.2 |
| 20260506042041 | 77 | 217 | 8.7 | 18.2 | 0.00 | 0.00 | 0.00 | 86 | 1006.2 |
| 20260506041554 | 78 | 77 | 8.7 | 14.8 | 0.00 | 0.00 | 0.00 | 87 | 1006.2 |
| 20260506041041 | 78 | 278 | 5.2 | 14.8 | 0.00 | 0.00 | 0.00 | 86 | 1006.0 |
| 20260506040537 | 78 | 287 | 6.1 | 14.8 | 0.00 | 0.00 | 0.00 | 86 | 1006.1 |
| 20260506040051 | 78 | 162 | 6.1 | 13.0 | 0.00 | 0.00 | 0.00 | 86 | 1005.8 |
| 20260506035539 | 78 | 134 | 7.8 | 13.0 | 0.00 | 0.00 | 0.00 | 85 | 1005.9 |
| 20260506035040 | 79 | 133 | 4.3 | 17.4 | 0.00 | 0.00 | 0.00 | 85 | 1005.8 |
| 20260506034549 | 79 | 147 | 6.1 | 17.4 | 0.00 | 0.00 | 0.00 | 85 | 1005.8 |
| 20260506034040 | 79 | 145 | 7.0 | 17.4 | 0.00 | 0.00 | 0.00 | 85 | 1005.8 |
| 20260506033540 | 79 | 162 | 8.7 | 17.4 | 0.00 | 0.00 | 0.00 | 84 | 1005.7 |
| 20260506033052 | 79 | 23 | 7.8 | 17.4 | 0.00 | 0.00 | 0.00 | 84 | 1005.6 |
| 20260506032540 | 79 | 76 | 8.7 | 17.4 | 0.00 | 0.00 | 0.00 | 83 | 1005.5 |
| 20260506032040 | 79 | 98 | 6.1 | 13.9 | 0.00 | 0.00 | 0.00 | 83 | 1005.5 |
| 20260506031559 | 79 | 135 | 4.3 | 12.2 | 0.00 | 0.00 | 0.00 | 84 | 1005.5 |
| 20260506031040 | 79 | 242 | 4.3 | 13.9 | 0.00 | 0.00 | 0.00 | 83 | 1005.5 |
| 20260506030539 | 80 | 153 | 3.5 | 15.6 | 0.00 | 0.00 | 0.00 | 83 | 1005.3 |
| 20260506030109 | 80 | 165 | 7.8 | 17.4 | 0.00 | 0.00 | 0.00 | 83 | 1005.2 |
| 20260506025539 | 80 | 261 | 7.0 | 17.4 | 0.00 | 0.00 | 0.00 | 82 | 1005.2 |
| 20260506025040 | 80 | 87 | 7.0 | 17.4 | 0.00 | 0.00 | 0.00 | 82 | 1005.1 |
| 20260506024548 | 80 | 15 | 6.1 | 15.6 | 0.00 | 0.00 | 0.00 | 81 | 1004.9 |
| 20260506024039 | 81 | 101 | 7.8 | 19.1 | 0.00 | 0.00 | 0.00 | 81 | 1004.8 |
| 20260506023540 | 81 | 110 | 9.6 | 19.1 | 0.00 | 0.00 | 0.00 | 81 | 1004.6 |
| 20260506023052 | 81 | 148 | 6.1 | 18.2 | 0.00 | 0.00 | 0.00 | 81 | 1004.8 |
| 20260506022543 | 81 | 73 | 7.8 | 18.2 | 0.00 | 0.00 | 0.00 | 81 | 1004.8 |
| 20260506022041 | 81 | 115 | 9.6 | 18.2 | 0.00 | 0.00 | 0.00 | 80 | 1004.7 |
| 20260506021551 | 82 | 344 | 9.6 | 16.5 | 0.00 | 0.00 | 0.00 | 80 | 1004.6 |
| 20260506021039 | 82 | 141 | 3.5 | 15.6 | 0.00 | 0.00 | 0.00 | 79 | 1004.6 |
| 20260506020539 | 82 | 108 | 7.8 | 16.5 | 0.00 | 0.00 | 0.00 | 79 | 1004.5 |
| 20260506020048 | 82 | 139 | 9.6 | 19.1 | 0.00 | 0.00 | 0.00 | 79 | 1004.5 |
| 20260506015540 | 82 | 94 | 8.7 | 19.1 | 0.00 | 0.00 | 0.00 | 78 | 1004.2 |
| 20260506015041 | 83 | 89 | 9.6 | 19.1 | 0.00 | 0.00 | 0.00 | 78 | 1004.1 |
| 20260506014558 | 83 | 32 | 6.1 | 18.2 | 0.00 | 0.00 | 0.00 | 76 | 1004.0 |
| 20260506014042 | 83 | 360 | 4.3 | 14.8 | 0.00 | 0.00 | 0.00 | 75 | 1004.0 |
| 20260506013540 | 83 | 46 | 7.0 | 17.4 | 0.00 | 0.00 | 0.00 | 74 | 1003.8 |
| 20260506013052 | 84 | 252 | 7.8 | 17.4 | 0.00 | 0.00 | 0.00 | 74 | 1003.7 |
| 20260506012540 | 84 | 290 | 3.5 | 13.9 | 0.00 | 0.00 | 0.00 | 74 | 1003.8 |
| 20260506012040 | 84 | 83 | 5.2 | 13.9 | 0.00 | 0.00 | 0.00 | 74 | 1003.7 |
| 20260506011557 | 84 | 298 | 5.2 | 12.2 | 0.00 | 0.00 | 0.00 | 74 | 1003.5 |
| 20260506011040 | 84 | 84 | 7.0 | 12.2 | 0.00 | 0.00 | 0.00 | 73 | 1003.4 |
| 20260506010540 | 84 | 104 | 2.6 | 10.4 | 0.00 | 0.00 | 0.00 | 72 | 1003.4 |
| 20260506010049 | 85 | 117 | 6.1 | 10.4 | 0.00 | 0.00 | 0.00 | 71 | 1003.3 |
| 20260506005540 | 85 | 88 | 5.2 | 10.4 | 0.00 | 0.00 | 0.00 | 71 | 1003.3 |
| 20260506005039 | 85 | 99 | 4.3 | 11.3 | 0.00 | 0.00 | 0.00 | 71 | 1003.2 |
| 20260506004624 | 85 | 97 | 5.2 | 11.3 | 0.00 | 0.00 | 0.00 | 70 | 1003.1 |
| 20260506004040 | 86 | 94 | 5.2 | 10.4 | 0.00 | 0.00 | 0.00 | 69 | 1003.0 |
| 20260506003540 | 86 | 8 | 2.6 | 8.7 | 0.00 | 0.00 | 0.00 | 69 | 1003.1 |
| 20260506003049 | 87 | 357 | 1.7 | 8.7 | 0.00 | 0.00 | 0.00 | 69 | 1003.2 |
| 20260506002540 | 87 | 90 | 2.6 | 8.7 | 0.00 | 0.00 | 0.00 | 67 | 1003.2 |
| 20260506002043 | 87 | 109 | 2.6 | 7.0 | 0.00 | 0.00 | 0.00 | 67 | 1003.2 |
| 20260506001549 | 87 | 132 | 1.7 | 12.2 | 0.00 | 0.00 | 0.00 | 66 | 1003.1 |
| 20260506001040 | 88 | 111 | 3.5 | 12.2 | 0.00 | 0.00 | 0.00 | 67 | 1003.1 |
| 20260506000540 | 88 | 97 | 2.6 | 7.8 | 0.00 | 0.00 | 0.00 | 65 | 1003.1 |
| 20260506000054 | 89 | 69 | 1.7 | 6.1 | 0.00 | 0.00 | 0.00 | 65 | 1003.1 |
| 20260505235540 | 88 | 0 | 0.0 | 5.2 | 0.00 | 0.00 | 0.00 | 65 | 1003.0 |
| 20260505235041 | 88 | 139 | 0.9 | 7.8 | 0.00 | 0.00 | 0.00 | 66 | 1003.0 |
| 20260505234611 | 88 | 155 | 3.5 | 7.8 | 0.00 | 0.00 | 0.00 | 66 | 1003.0 |
| 20260505234040 | 88 | 122 | 2.6 | 8.7 | 0.00 | 0.00 | 0.00 | 66 | 1003.0 |
| 20260505233539 | 88 | 150 | 2.6 | 9.6 | 0.00 | 0.00 | 0.00 | 66 | 1003.0 |
| 20260505233051 | 88 | 127 | 4.3 | 9.6 | 0.00 | 0.00 | 0.00 | 65 | 1003.1 |
| 20260505232540 | 89 | 129 | 2.6 | 8.7 | 0.00 | 0.00 | 0.00 | 65 | 1003.1 |
| 20260505232041 | 89 | 101 | 0.9 | 7.0 | 0.00 | 0.00 | 0.00 | 65 | 1003.1 |
| 20260505231550 | 89 | 340 | 0.9 | 5.2 | 0.00 | 0.00 | 0.00 | 64 | 1003.0 |
| 20260505231039 | 89 | 0 | 0.0 | 3.5 | 0.00 | 0.00 | 0.00 | 63 | 1003.1 |
| 20260505230540 | 88 | 183 | 0.9 | 5.2 | 0.00 | 0.00 | 0.00 | 65 | 1003.0 |
| 20260505230055 | 89 | 116 | 1.7 | 5.2 | 0.00 | 0.00 | 0.00 | 65 | 1003.0 |
| 20260505225540 | 89 | 107 | 0.9 | 4.3 | 0.00 | 0.00 | 0.00 | 65 | 1003.1 |
| 20260505225040 | 88 | 99 | 0.9 | 7.8 | 0.00 | 0.00 | 0.00 | 65 | 1003.0 |
| 20260505224552 | 88 | 116 | 0.9 | 12.2 | 0.00 | 0.00 | 0.00 | 65 | 1002.8 |
| 20260505224040 | 88 | 106 | 6.1 | 12.2 | 0.00 | 0.00 | 0.00 | 65 | 1003.0 |
| 20260505223539 | 89 | 351 | 0.9 | 9.6 | 0.00 | 0.00 | 0.00 | 64 | 1003.0 |
| 20260505223059 | 88 | 176 | 5.2 | 10.4 | 0.00 | 0.00 | 0.00 | 66 | 1002.9 |
| 20260505222541 | 88 | 346 | 2.6 | 10.4 | 0.00 | 0.00 | 0.00 | 65 | 1003.0 |